Regional Weather Roundup
Issued by NWS

Home | Current Version | Previous Version | Text Only | Print | Product List | Glossary Off
Versions: 1 2 3 4 5 6 7 8 9 10 11 12 13 14 15 16 17 18 19 20 21 22 23 24 25 26 27 28 29 30 31 32 33 34 35 36 37 38 39 40 41 42 43 44 45 46 47 48 49 50

000
ASUS44 KMEG 200710
RWRTN
TENNESSEE HOURLY STATE WEATHER ROUNDUP
NATIONAL WEATHER SERVICE MEMPHIS TN
100 AM CST SAT DEC 20 2014

TNZ002-004-019-021-049-052-054-088>092-200800-
WEST TENNESSEE

CITY           SKY/WX    TMP DP  RH WIND       PRES   REMARKS
MEMPHIS INTL   PTCLDY    39  32  76 NE5       30.22F
NWS MEMPHIS      N/A     36 N/A N/A MISG        N/A
JACKSON        CLEAR     35  30  82 N3        30.22F
DYERSBURG      CLOUDY    37  23  56 NE5       30.25F WCI  34
UNION CITY     CLOUDY    34  30  86 N5        30.24R WCI  30
PARIS          CLOUDY    30  27  86 NE3       30.23F
LEXINGTON      CLEAR     34  28  80 CALM      30.20F
SAVANNAH       MOCLDY    36  30  80 N3        30.21S
$$

TNZ008-025-027-028-033-062-065-066-200800-
NORTH MIDDLE TENNESSEE

CITY           SKY/WX    TMP DP  RH WIND       PRES   REMARKS
NASHVILLE      CLOUDY    37  28  70 N6        30.22S WCI  32
CLARKSVILLE    FAIR      30  26  85 N6        30.24S WCI  24
SMYRNA         MOCLDY    35  28  76 CALM      30.22S
COOKEVILLE     MOCLDY    34  28  80 NE3       30.16F
CROSSVILLE     CLOUDY    34  26  72 NW5       30.15S WCI  30
$$

TNZ061-075-076-078-094-096-097-200800-
SOUTH MIDDLE TENNESSEE

CITY           SKY/WX    TMP DP  RH WIND       PRES   REMARKS
FAYETTEVILLE   CLOUDY    36  28  75 MISG      30.16S
TULLAHOMA      CLOUDY    36  28  75 CALM      30.17S
WINCHESTER     CLOUDY    36  32  87 CALM      30.17F
MCMINNVILLE    MOCLDY    36  30  80 CALM      30.16F
SHELBYVILLE    MOCLDY    36  30  80 NW3       30.19R
$$

TNZ017-018-042-046-047-200800-
NORTHEAST TENNESSEE

CITY           SKY/WX    TMP DP  RH WIND       PRES   REMARKS
TRI CITIES     CLOUDY    33  27  78 CALM      30.14F
ELIZABETHTON   PTSUNNY   32  27  80 CALM      30.12F
$$

TNZ012-013-036-069-073-074-200800-
CENTRAL EAST TENNESSEE

CITY           SKY/WX    TMP DP  RH WIND       PRES   REMARKS
KNOXVILLE      CLOUDY    38  29  70 CALM      30.14F
OAK RIDGE      CLOUDY    39  28  64 CALM      30.15F
GATLINBURG     PTSUNNY   34  30  86 CALM      30.13F
MORRISTOWN     SUNNY     37  28  70 CALM      30.14S
$$

TNZ083-085-099-200800-
SOUTHEAST TENNESSEE

CITY           SKY/WX    TMP DP  RH WIND       PRES   REMARKS
CHATTANOOGA    CLOUDY    42  31  64 N5        30.17R
$$

SKY/WX REPORTED AS FAIR MEANS FEW OR NO CLOUDS BELOW
12 THOUSAND FEET.



USA.gov is the U.S. government's official web portal to all federal, state and local government web resources and services.